Temperature
22 22 23 23 23 23 23 23 23 22 22 21 20 20 20 19 19 19 18 18 18 18 18 18 17 17 17 17 17 17 16 16 16 16 16 16 16 16 16 16 16 16 16
21 22 22 23 23 24 24 24 23 23 22 21 21 20 20 19 19 19 18 18 18 18 18 18 17 17 17 17 17 16 16 16 16 16 16 16 16 16 16 16 16 16 16
19 21 22 23 23 23 24 24 23 23 22 22 21 20 20 19 19 19 18 18 18 18 17 17 17 17 17 17 17 16 16 16 16 16 16 16 16 16 16 16 16 16 16
18 20 21 22 23 23 23 22 22 22 22 21 20 20 19 19 19 19 18 18 18 17 17 17 17 17 17 17 17 16 16 16 15 15 15 16 16 16 16 16 16 16 16
17 19 20 21 22 22 21 21 21 20 20 20 19 19 19 19 18 18 18 17 17 17 17 17 17 16 16 16 16 16 16 16 15 15 15 15 15 15 16 16 16 16 16
16 17 18 19 20 20 20 20 19 19 19 18 18 18 18 18 18 18 17 17 17 17 17 17 16 16 16 16 16 16 16 15 15 15 15 15 15 15 15 16 16 16 16
15 16 17 17 17 18 18 18 18 18 18 17 18 18 18 18 17 17 17 17 17 16 16 16 16 16 16 16 16 15 15 15 15 15 15 15 15 15 15 15 15 15 16
14 15 15 16 17 17 17 17 17 17 17 17 17 17 18 17 17 17 17 17 16 16 16 16 16 16 16 15 15 15 15 15 15 15 15 15 15 14 14 14 15 15 15
14 14 15 15 16 16 16 16 16 16 17 17 17 17 18 17 17 17 17 17 16 16 16 16 16 16 16 15 15 15 15 14 14 14 14 14 14 14 14 14 14 14 14
14 14 14 15 15 15 15 16 16 16 17 17 17 17 17 17 17 17 17 17 16 16 16 16 16 16 15 15 15 15 15 14 14 14 14 14 14 14 14 14 14 14 14
14 14 14 14 15 15 15 16 16 16 17 17 17 17 18 17 17 17 17 17 16 16 16 16 16 15 15 15 15 15 14 14 14 14 14 13 13 13 13 14 14 14 14
14 14 14 14 15 15 16 16 16 17 17 17 17 17 18 17 17 17 17 17 16 16 16 16 16 15 15 15 15 15 14 14 14 14 13 13 13 13 13 13 13 13 14
13 14 14 15 15 16 16 17 17 17 17 17 17 17 17 17 17 17 17 17 17 16 16 16 15 15 15 15 15 14 14 14 14 14 13 13 13 13 13 13 13 13 13
13 13 14 14 15 16 16 17 18 18 18 17 17 17 17 17 17 17 17 17 17 16 16 16 15 15 15 15 15 14 14 14 14 14 13 13 13 13 13 13 13 13 13
12 13 13 14 15 16 16 17 17 17 17 17 17 16 17 17 17 17 17 17 17 16 16 16 16 15 15 15 15 14 14 14 14 14 14 13 13 13 13 13 13 13 13
12 13 13 14 14 14 15 15 16 16 16 16 16 16 16 16 16 16 16 16 16 16 16 16 16 15 15 15 15 14 14 14 14 14 14 14 13 13 13 13 13 12 12
13 13 13 13 13 13 13 14 14 14 14 15 15 15 15 15 15 16 16 16 16 16 16 15 15 15 15 15 15 14 14 14 14 14 14 14 14 13 13 13 13 13 12
13 13 13 13 13 13 13 13 13 13 13 14 14 14 14 14 15 15 15 15 15 15 15 15 14 14 14 14 14 14 14 14 14 14 14 14 14 14 14 13 13 13 13
13 13 13 13 13 12 12 13 13 13 13 13 13 13 13 13 14 14 14 13 13 13 13 13 13 13 13 14 14 14 14 14 14 14 14 14 14 14 14 14 14 13 13
14 13 13 13 13 13 13 13 12 12 12 12 12 12 12 12 12 12 12 12 12 12 12 12 12 12 13 13 13 13 14 14 14 14 14 14 14 14 14 14 14 14 13
14 14 14 14 13 13 13 13 13 12 12 11 11 11 11 11 11 11 11 11 11 11 11 11 11 12 12 12 12 13 13 13 13 13 13 13 14 14 14 14 14 13 13
14 14 14 14 14 14 13 13 13 12 12 12 11 11 11 11 11 11 11 11 11 11 11 11 11 11 12 12 12 12 12 12 13 13 13 13 13 13 13 13 13 13 13
15 15 15 14 14 14 14 13 13 13 12 12 11 11 11 11 11 11 11 11 11 11 11 11 11 11 11 11 11 11 12 12 12 12 12 12 12 12 13 13 13 13 13
15 15 15 15 15 14 14 14 13 13 12 12 12 11 11 11 11 11 11 11 11 11 11 11 11 11 11 11 11 11 11 11 11 11 11 11 12 12 12 12 12 12 12
15 15 15 15 15 15 15 14 14 13 13 12 12 11 11 11 11 11 11 11 10 10 10 10 10 10 10 10 10 10 10 11 11 11 11 11 11 11 11 12 12 12 12
15 16 16 16 16 15 15 15 14 13 13 12 12 12 11 11 11 11 11 10 10 10 10 10 10 10 10 10 10 10 10 10 10 10 10 10 11 11 11 11 11 11 11
Wind_Speed
11 10 12 14 14 15 15 15 14 12 10 7 7 6 5 5 5 5 8 10 11 11 9 6 5 4 4 4 4 3 3 2 3 3 2 2 2 1 1 1 0 0 1
11 10 11 13 17 18 18 16 15 13 12 9 6 3 3 3 3 3 5 8 9 10 9 7 7 6 5 5 6 4 3 2 3 4 3 0 3 2 2 2 3 2 1
14 12 9 10 13 15 16 14 13 11 10 8 5 4 3 3 2 3 4 5 7 8 7 7 7 7 7 7 7 7 7 5 3 2 4 4 5 2 2 2 3 3 3
15 11 7 6 8 10 9 9 10 10 9 8 6 5 4 4 5 3 3 4 5 6 6 6 6 7 6 7 8 8 6 6 5 2 1 1 3 3 2 2 2 3 4
16 11 6 2 2 5 8 9 12 11 9 7 4 3 2 2 2 3 4 4 3 4 5 6 5 6 6 7 8 8 8 7 6 5 3 1 1 1 3 2 3 2 4
16 12 9 8 7 9 10 11 13 11 9 6 2 4 4 4 4 4 4 3 2 2 4 4 5 5 5 6 7 8 9 8 7 6 5 4 3 4 3 3 3 3 3
15 13 10 8 8 9 10 10 12 11 8 5 4 5 6 6 5 5 4 4 2 2 3 4 4 4 5 5 5 6 7 8 8 9 7 6 5 4 4 4 3 2 2
14 12 10 8 8 9 9 8 9 9 6 4 4 4 5 4 3 4 4 4 3 3 3 4 4 4 4 4 5 4 5 6 8 10 9 7 7 6 5 5 5 3 2
13 12 10 8 8 8 8 8 7 5 4 4 4 4 4 4 4 4 3 3 3 3 3 4 3 3 3 3 4 3 4 5 6 7 8 7 7 7 6 5 5 6 4
12 11 9 9 8 7 8 8 5 2 3 4 4 3 3 4 4 4 4 4 3 3 4 4 4 3 3 3 3 2 2 4 4 5 7 7 6 7 7 7 6 6 7
10 9 8 7 7 6 5 4 1 1 2 3 3 4 3 4 4 4 4 4 4 4 5 5 4 4 3 3 3 2 2 2 3 3 5 6 6 7 7 7 7 7 7
9 6 6 7 6 5 4 3 2 2 3 4 4 4 3 4 4 3 3 3 3 4 4 4 4 4 4 4 4 3 3 3 2 3 3 4 5 7 7 7 9 8 8
11 9 8 7 6 5 5 4 4 4 3 5 5 4 3 3 3 2 2 2 2 3 3 4 4 4 4 4 4 4 4 3 3 3 3 4 4 5 5 7 8 8 8
12 12 10 9 7 6 6 5 3 1 2 4 4 3 3 2 1 1 1 1 2 3 4 4 5 5 4 5 5 5 4 4 3 3 3 3 3 4 4 5 6 7 8
15 14 13 11 11 11 10 9 8 6 5 5 5 4 3 3 3 3 2 1 2 2 3 4 5 5 4 5 6 6 6 5 4 3 3 3 4 4 4 4 4 5 6
14 13 13 13 13 13 12 12 12 11 10 9 8 7 6 6 6 5 4 4 3 3 2 4 4 5 5 6 9 8 6 6 5 4 3 3 4 4 4 5 5 6 5
10 11 10 10 10 10 10 10 10 10 10 10 9 8 8 7 7 6 6 5 5 3 3 3 2 4 5 7 7 9 6 6 6 5 4 3 3 4 2 3 3 5 7
9 9 8 8 8 8 8 8 9 9 9 9 9 9 8 8 7 7 7 6 4 4 4 4 4 3 4 6 5 7 6 5 5 5 5 5 5 4 4 3 3 3 4
6 5 5 5 6 7 7 7 8 8 9 9 8 8 8 8 8 8 7 6 5 6 5 4 6 5 6 8 5 2 3 4 4 4 4 5 5 7 7 5 5 5 5
4 4 4 5 6 6 6 7 7 8 8 7 7 7 7 7 7 7 6 5 5 6 6 8 8 8 8 11 9 3 2 2 2 2 3 5 6 7 7 6 6 7 5
5 4 5 5 5 6 6 7 6 6 5 5 6 7 7 7 7 7 6 6 7 7 7 7 7 8 10 12 13 8 2 0 1 1 2 3 4 4 5 7 6 7 4
6 5 5 5 5 5 5 5 5 4 3 4 5 7 7 7 6 7 7 7 7 8 8 7 7 7 8 10 12 13 8 3 1 2 2 3 4 3 1 2 4 5 4
5 4 4 5 6 4 3 4 4 3 2 3 4 5 6 6 6 7 7 6 7 7 7 7 7 7 7 8 13 13 11 8 3 2 3 3 4 5 4 4 3 3 3
5 4 4 5 6 5 3 2 3 1 2 2 3 3 4 5 6 6 6 6 7 7 7 7 7 7 6 7 8 7 6 7 5 3 5 6 7 6 5 5 5 3 3
5 4 4 5 6 5 4 2 0 2 2 1 2 3 3 3 3 4 4 4 4 5 5 5 5 6 7 8 11 7 5 4 3 3 3 3 3 4 3 4 4 4 3
6 5 5 6 6 5 5 3 2 3 2 0 1 2 2 2 2 2 2 2 2 4 6 6 6 4 6 9 9 10 9 8 6 4 4 4 4 4 3 3 3 4 4
Wind_Direction
268 255 240 227 214 208 202 198 195 186 174 170 174 178 198 198 199 198 194 195 200 202 199 205 201 190 195 196 175 148 152 140 132 103 64 13 4 252 236 202 165 83 45
298 277 252 230 216 210 205 198 193 185 180 182 172 159 155 178 190 191 189 192 191 193 199 194 194 189 192 192 182 163 156 161 162 141 125 44 329 306 235 214 211 212 226
314 294 270 239 220 214 205 195 185 175 167 151 131 106 96 91 133 187 197 194 189 190 193 191 188 188 187 194 190 181 175 176 193 191 153 159 214 263 297 251 221 202 208
328 307 284 252 216 202 182 162 148 139 132 129 145 172 180 191 199 188 186 179 184 188 194 191 188 190 191 194 193 186 181 170 182 196 161 149 150 164 253 300 257 216 217
340 336 334 316 148 134 124 119 114 113 110 112 152 197 198 183 151 148 158 164 177 189 192 192 190 195 198 200 192 184 186 185 184 176 159 133 92 149 164 239 278 271 236
352 359 20 41 69 90 101 107 107 104 102 108 153 206 198 181 164 160 158 159 168 183 191 188 193 200 200 201 197 193 193 195 191 186 174 169 179 193 177 185 225 248 260
356 3 17 40 57 75 88 98 106 103 109 132 186 204 198 189 181 173 169 163 168 187 194 180 190 199 206 201 190 193 201 197 199 200 199 193 196 183 173 171 187 231 270
359 5 13 39 62 69 78 87 100 112 129 158 200 203 188 181 179 171 168 173 181 187 177 173 185 197 196 190 183 192 203 201 207 211 208 206 206 195 187 178 170 193 257
358 6 16 34 60 69 73 76 85 107 144 179 187 186 178 175 179 175 168 168 171 169 160 160 163 167 167 170 168 189 202 199 209 216 215 217 213 206 205 193 182 181 210
354 6 20 28 44 54 62 64 67 135 180 177 170 174 175 184 179 164 163 162 161 152 147 145 145 143 142 146 152 177 201 203 214 214 217 220 216 212 210 208 202 196 198
350 3 15 21 32 38 45 47 6 214 174 166 162 158 161 166 161 157 161 160 158 160 163 161 156 157 158 157 158 175 179 200 223 228 223 227 217 218 216 210 206 206 199
3 7 19 22 17 13 2 332 284 237 198 169 156 154 138 125 120 128 143 147 157 170 173 168 169 175 176 175 178 188 186 195 218 235 238 243 232 225 220 214 214 211 207
20 25 33 31 15 358 339 311 276 241 197 162 147 129 114 108 111 113 116 132 159 183 184 185 194 199 197 196 201 200 200 204 216 223 229 243 241 242 233 224 219 214 211
29 31 33 32 26 17 2 350 338 248 156 141 133 129 116 111 115 105 118 158 189 206 210 213 216 216 212 209 207 205 208 211 216 217 223 236 239 252 249 236 226 216 210
29 31 32 34 35 35 34 32 31 37 62 78 67 50 38 40 31 24 5 326 265 244 229 229 230 225 218 219 209 205 207 208 214 218 224 238 251 263 253 237 220 212 213
20 24 30 33 34 33 33 36 40 44 56 60 51 38 29 27 18 5 358 350 332 311 267 239 236 236 237 235 222 205 202 204 210 222 233 250 263 279 287 258 229 210 209
7 16 20 24 27 28 31 35 36 43 52 51 43 34 29 27 14 6 9 3 350 342 321 302 268 259 266 267 251 220 200 203 209 215 225 246 250 254 260 270 258 240 230
356 4 9 15 17 21 27 32 33 38 43 41 35 28 26 22 15 17 16 7 0 358 353 349 339 318 318 315 280 234 204 205 212 213 217 233 255 250 232 229 241 247 238
336 345 357 6 12 15 14 32 31 31 36 31 25 18 17 18 18 18 11 8 10 16 14 10 13 13 358 359 342 237 182 202 218 220 221 229 247 258 241 219 234 251 257
332 344 355 10 14 0 6 33 26 26 23 14 11 11 16 22 21 18 15 12 21 27 33 38 33 30 17 15 19 50 136 188 228 246 254 251 255 262 244 213 218 240 251
334 353 3 3 351 348 9 24 19 10 354 6 20 22 22 27 27 29 28 27 33 39 37 37 32 28 21 18 24 31 47 29 258 274 288 293 299 289 252 213 213 231 225
340 346 347 339 336 347 5 11 359 335 353 31 37 30 27 29 31 37 34 31 33 37 29 23 18 15 11 14 16 20 21 27 13 305 307 316 335 354 358 208 220 219 194
330 329 327 324 327 333 347 353 333 340 37 45 37 29 31 34 33 38 34 31 32 34 26 21 14 3 1 4 11 12 14 16 16 345 335 2 33 46 43 52 89 120 130
328 327 326 319 315 317 323 313 323 31 91 52 25 18 24 31 36 38 37 37 30 26 22 18 11 2 359 1 358 355 358 6 18 24 42 50 54 55 53 51 50 60 91
316 313 295 287 289 298 299 295 190 136 127 61 17 13 18 34 47 47 39 33 32 20 13 7 359 357 356 345 344 350 351 351 2 22 36 39 39 39 42 47 46 46 56
313 311 299 283 284 287 284 277 201 162 156 91 4 7 11 31 59 57 37 24 7 5 10 6 360 338 335 341 1 14 22 28 38 47 47 46 48 46 45 53 48 43 44
Height
1483 1483 1484 1486 1488 1491 1494 1496 1499 1502 1505 1508 1510 1513 1515 1518 1520 1522 1524 1526 1527 1529 1530 1533 1535 1536 1538 1540 1541 1543 1545 1546 1548 1549 1549 1550 1550 1550 1551 1551 1551 1551 1552
1478 1478 1477 1479 1480 1483 1486 1489 1493 1497 1501 1504 1508 1511 1514 1516 1518 1520 1522 1523 1524 1526 1527 1529 1530 1532 1534 1536 1538 1539 1541 1543 1545 1546 1547 1548 1549 1548 1549 1549 1550 1550 1551
1475 1472 1471 1472 1473 1476 1479 1482 1486 1491 1496 1501 1506 1509 1512 1514 1516 1517 1519 1520 1521 1523 1524 1525 1527 1528 1530 1532 1533 1535 1537 1539 1541 1543 1545 1545 1544 1545 1546 1547 1548 1549 1550
1472 1468 1467 1467 1468 1470 1473 1477 1481 1486 1492 1497 1503 1506 1509 1511 1513 1515 1517 1518 1519 1520 1521 1522 1523 1524 1526 1527 1528 1530 1532 1534 1536 1538 1540 1542 1542 1543 1543 1544 1545 1546 1547
1471 1467 1464 1464 1464 1466 1470 1473 1476 1481 1488 1494 1501 1504 1507 1509 1511 1512 1513 1514 1515 1517 1518 1519 1520 1521 1522 1523 1524 1525 1527 1528 1531 1533 1535 1537 1539 1540 1541 1541 1542 1543 1545
1472 1468 1465 1463 1463 1464 1467 1471 1473 1478 1484 1491 1497 1502 1505 1507 1508 1509 1510 1512 1513 1514 1515 1516 1517 1518 1518 1519 1520 1521 1522 1523 1525 1527 1529 1531 1533 1535 1537 1538 1539 1540 1542
1475 1470 1467 1465 1465 1466 1468 1471 1474 1478 1483 1489 1495 1500 1503 1506 1507 1508 1509 1510 1511 1512 1512 1513 1514 1515 1515 1515 1516 1516 1517 1519 1520 1521 1523 1525 1527 1530 1533 1535 1536 1537 1539
1477 1473 1471 1469 1468 1470 1471 1474 1475 1480 1485 1490 1495 1499 1502 1504 1506 1507 1508 1508 1509 1510 1510 1511 1512 1512 1512 1512 1512 1513 1514 1514 1515 1517 1518 1520 1522 1524 1527 1530 1532 1533 1535
1480 1475 1473 1472 1471 1471 1473 1475 1478 1483 1487 1492 1496 1499 1501 1503 1505 1507 1507 1508 1508 1508 1509 1509 1509 1509 1509 1509 1509 1510 1510 1510 1511 1512 1514 1515 1517 1518 1521 1524 1527 1530 1530
1482 1478 1475 1474 1473 1473 1474 1478 1482 1486 1489 1493 1496 1499 1501 1503 1505 1505 1506 1506 1506 1507 1507 1508 1507 1507 1507 1507 1507 1507 1507 1507 1508 1508 1509 1510 1512 1513 1515 1518 1520 1523 1526
1484 1480 1478 1476 1475 1476 1479 1481 1485 1489 1491 1494 1497 1499 1500 1502 1503 1503 1504 1504 1505 1505 1506 1506 1506 1506 1506 1506 1506 1506 1505 1505 1505 1505 1506 1506 1507 1508 1510 1512 1514 1517 1519
1486 1484 1482 1480 1479 1480 1482 1484 1487 1490 1492 1494 1496 1498 1499 1500 1501 1502 1502 1503 1503 1504 1504 1505 1505 1505 1505 1505 1505 1505 1504 1504 1503 1503 1503 1503 1503 1504 1505 1506 1507 1510 1513
1489 1486 1485 1484 1483 1483 1484 1486 1487 1489 1491 1493 1495 1496 1497 1498 1499 1500 1500 1501 1502 1502 1503 1504 1504 1504 1504 1504 1504 1504 1503 1502 1502 1501 1501 1500 1500 1500 1501 1501 1502 1504 1507
1494 1491 1489 1488 1487 1486 1486 1486 1486 1488 1489 1491 1492 1493 1494 1496 1496 1497 1498 1499 1500 1501 1501 1502 1502 1503 1503 1503 1503 1502 1502 1501 1501 1500 1499 1498 1498 1497 1497 1498 1498 1500 1502
1498 1496 1494 1492 1490 1489 1488 1487 1487 1487 1488 1489 1490 1491 1492 1493 1494 1495 1496 1497 1498 1498 1499 1500 1500 1500 1501 1501 1501 1501 1500 1500 1500 1499 1498 1497 1497 1496 1495 1495 1495 1496 1497
1504 1502 1499 1496 1494 1493 1491 1490 1489 1488 1489 1489 1490 1491 1491 1491 1492 1493 1494 1495 1495 1496 1496 1496 1497 1497 1498 1499 1499 1499 1498 1498 1498 1498 1498 1497 1496 1495 1494 1494 1494 1494 1495
1510 1507 1505 1502 1500 1498 1497 1495 1493 1493 1492 1491 1491 1491 1491 1491 1491 1491 1492 1492 1492 1492 1493 1493 1493 1494 1495 1495 1495 1495 1496 1496 1496 1496 1496 1496 1496 1495 1494 1493 1493 1493 1493
1516 1513 1511 1508 1506 1504 1502 1500 1498 1496 1495 1494 1493 1492 1491 1490 1490 1490 1490 1489 1489 1489 1489 1489 1489 1490 1490 1491 1491 1492 1492 1493 1493 1494 1494 1494 1494 1494 1493 1493 1493 1493 1492
1520 1518 1516 1514 1512 1510 1508 1506 1503 1501 1498 1496 1494 1493 1492 1491 1490 1489 1488 1488 1488 1487 1487 1486 1486 1486 1487 1487 1488 1488 1489 1490 1490 1491 1491 1492 1492 1492 1492 1492 1492 1492 1492
1524 1522 1520 1519 1516 1514 1512 1510 1507 1504 1501 1499 1498 1496 1494 1493 1492 1491 1490 1489 1488 1487 1487 1486 1485 1485 1484 1484 1484 1485 1485 1486 1487 1488 1488 1489 1490 1490 1490 1490 1491 1491 1491
1526 1525 1523 1521 1519 1517 1515 1512 1510 1508 1506 1504 1502 1500 1498 1496 1495 1494 1493 1492 1491 1489 1488 1487 1486 1485 1484 1483 1482 1482 1483 1483 1483 1484 1485 1486 1486 1487 1488 1488 1489 1489 1489
1528 1527 1525 1524 1522 1520 1518 1516 1513 1511 1509 1507 1505 1503 1501 1500 1499 1498 1496 1495 1493 1492 1490 1489 1487 1486 1484 1483 1482 1481 1480 1480 1480 1481 1482 1482 1483 1484 1485 1486 1486 1487 1488
1529 1528 1527 1526 1524 1523 1521 1518 1516 1514 1512 1510 1508 1506 1505 1503 1502 1500 1499 1497 1495 1493 1491 1490 1488 1486 1485 1483 1482 1480 1479 1479 1479 1479 1479 1480 1481 1482 1483 1484 1484 1485 1486
1530 1529 1528 1527 1526 1524 1522 1520 1518 1516 1514 1512 1511 1509 1507 1506 1504 1502 1500 1498 1496 1494 1492 1490 1489 1487 1485 1484 1482 1480 1479 1478 1478 1478 1478 1478 1479 1480 1481 1482 1483 1483 1484
1530 1529 1528 1527 1526 1525 1523 1522 1520 1518 1516 1514 1512 1511 1509 1507 1506 1504 1502 1500 1498 1496 1494 1492 1490 1488 1486 1485 1483 1481 1480 1479 1478 1478 1477 1478 1478 1479 1480 1481 1482 1482 1483
1530 1528 1527 1526 1526 1525 1523 1522 1520 1519 1517 1515 1513 1512 1510 1508 1507 1505 1503 1501 1500 1498 1496 1494 1493 1491 1489 1487 1485 1483 1482 1480 1480 1479 1478 1478 1478 1479 1480 1481 1482 1482 1483